LNI744 WADD-WAAA

Flight info

Callsign LNI744
Flight time 1h 3m
Altitude 35000
Route PEDET W41 LIPOT
Aircraft B738/M-SDE2E3FGHIRWXY/LB1

Departure

Time 2026-04-22 12:51
Airport Denpasar I Gusti Ngurah Rai International Airport (WADD)

Arrival

Time 2026-04-22 13:55
Airport Sultan Hasanuddin International Airport (WAAA)
Time Latitude Longitude Altitude Speed Heading
2026-04-22 12:21 -8.74474 115.16133 20 ft 0 kts 88°
2026-04-22 12:40 -8.74474 115.16126 19 ft 2 kts 88°
2026-04-22 12:40 -8.74474 115.16111 19 ft 2 kts 88°
2026-04-22 12:40 -8.74475 115.16096 18 ft 2 kts 88°
2026-04-22 12:41 -8.74473 115.16081 18 ft 2 kts 117°
2026-04-22 12:41 -8.74464 115.16068 17 ft 2 kts 140°
2026-04-22 12:41 -8.74451 115.16061 17 ft 2 kts 165°
2026-04-22 12:41 -8.74442 115.16059 17 ft 1 kts 179°
2026-04-22 12:42 -8.74437 115.16059 17 ft 0 kts 178°
2026-04-22 12:44 -8.74459 115.16065 17 ft 10 kts 165°
2026-04-22 12:44 -8.74570 115.16076 17 ft 13 kts 178°
2026-04-22 12:44 -8.74644 115.16078 17 ft 9 kts 181°
2026-04-22 12:45 -8.74705 115.16022 15 ft 15 kts 264°
2026-04-22 12:45 -8.74709 115.15910 14 ft 16 kts 268°
2026-04-22 12:45 -8.74713 115.15792 13 ft 17 kts 268°
2026-04-22 12:45 -8.74717 115.15670 11 ft 17 kts 267°
2026-04-22 12:46 -8.74721 115.15583 11 ft 9 kts 268°
2026-04-22 12:46 -8.74723 115.15520 11 ft 8 kts 268°
2026-04-22 12:46 -8.74724 115.15492 11 ft 0 kts 268°
2026-04-22 12:47 -8.74729 115.15434 11 ft 11 kts 257°
2026-04-22 12:47 -8.74773 115.15391 11 ft 2 kts 192°
2026-04-22 12:47 -8.74777 115.15390 11 ft 0 kts 187°
2026-04-22 12:49 -8.74780 115.15390 11 ft 3 kts 180°
2026-04-22 12:50 -8.74836 115.15391 11 ft 12 kts 179°
2026-04-22 12:50 -8.74893 115.15429 12 ft 11 kts 93°
2026-04-22 12:50 -8.74892 115.15452 12 ft 0 kts 88°
2026-04-22 12:51 -8.74891 115.15469 12 ft 16 kts 88°
2026-04-22 12:51 -8.74874 115.15897 15 ft 102 kts 88°
2026-04-22 12:51 -8.74837 115.16861 29 ft 169 kts 88°
2026-04-22 12:51 -8.74834 115.18105 641 ft 183 kts 91°
2026-04-22 12:52 -8.74829 115.19411 1425 ft 195 kts 86°
2026-04-22 12:52 -8.74737 115.20776 2132 ft 200 kts 85°
2026-04-22 12:52 -8.74648 115.22219 2654 ft 214 kts 86°
2026-04-22 12:52 -8.74574 115.23801 3092 ft 236 kts 87°
2026-04-22 12:53 -8.74507 115.25497 3771 ft 247 kts 87°
2026-04-22 12:53 -8.74438 115.27259 4397 ft 261 kts 87°
2026-04-22 12:53 -8.74364 115.29102 5185 ft 267 kts 87°
2026-04-22 12:53 -8.74288 115.30983 5987 ft 272 kts 87°
2026-04-22 12:54 -8.74211 115.32892 6817 ft 275 kts 87°
2026-04-22 12:54 -8.74132 115.34838 7615 ft 279 kts 87°
2026-04-22 12:54 -8.74053 115.36790 8424 ft 282 kts 87°
2026-04-22 12:54 -8.73973 115.38766 8860 ft 285 kts 86°
2026-04-22 12:55 -8.73919 115.40112 8991 ft 287 kts 87°
2026-04-22 12:55 -8.73810 115.42790 9006 ft 284 kts 86°
2026-04-22 12:55 -8.73730 115.44779 9011 ft 284 kts 86°
2026-04-22 12:55 -8.73649 115.46774 9012 ft 284 kts 86°
2026-04-22 12:56 -8.73560 115.48766 9013 ft 285 kts 84°
2026-04-22 12:56 -8.73189 115.50732 9015 ft 283 kts 69°
2026-04-22 12:56 -8.72179 115.52432 9019 ft 283 kts 49°
2026-04-22 12:56 -8.70807 115.53844 9008 ft 282 kts 44°
2026-04-22 12:57 -8.69358 115.55208 9004 ft 283 kts 44°
2026-04-22 12:57 -8.67927 115.56568 9000 ft 281 kts 44°
2026-04-22 12:57 -8.66508 115.57954 9001 ft 283 kts 45°
2026-04-22 12:57 -8.65103 115.59352 8997 ft 283 kts 45°
2026-04-22 12:58 -8.63724 115.60737 8995 ft 282 kts 45°
2026-04-22 12:58 -8.62327 115.62141 8990 ft 281 kts 45°
2026-04-22 12:58 -8.60925 115.63551 8985 ft 281 kts 45°
2026-04-22 12:58 -8.59551 115.64931 8981 ft 280 kts 45°
2026-04-22 12:59 -8.58165 115.66320 8977 ft 281 kts 45°
2026-04-22 12:59 -8.56767 115.67721 8975 ft 281 kts 45°
2026-04-22 12:59 -8.55390 115.69147 8973 ft 282 kts 49°
2026-04-22 12:59 -8.54281 115.70808 9056 ft 294 kts 64°
2026-04-22 13:00 -8.53553 115.72688 9976 ft 290 kts 70°
2026-04-22 13:00 -8.52897 115.74641 10606 ft 299 kts 70°
2026-04-22 13:00 -8.52203 115.76652 11108 ft 312 kts 69°
2026-04-22 13:00 -8.51437 115.78764 11580 ft 326 kts 69°
2026-04-22 13:01 -8.50626 115.80924 12285 ft 331 kts 68°
2026-04-22 13:01 -8.49804 115.83083 13055 ft 334 kts 68°
2026-04-22 13:01 -8.48968 115.85271 13761 ft 339 kts 68°
2026-04-22 13:01 -8.48113 115.87513 14483 ft 343 kts 68°
2026-04-22 13:02 -8.47249 115.89781 14889 ft 349 kts 68°
2026-04-22 13:02 -8.46374 115.92081 14972 ft 350 kts 68°
2026-04-22 13:02 -8.45512 115.94351 14972 ft 346 kts 68°
2026-04-22 13:02 -8.44647 115.96626 14972 ft 347 kts 68°
2026-04-22 13:03 -8.43779 115.98909 14973 ft 347 kts 68°
2026-04-22 13:03 -8.42919 116.01175 14975 ft 347 kts 68°
2026-04-22 13:03 -8.42055 116.03451 14979 ft 346 kts 68°
2026-04-22 13:03 -8.41186 116.05739 14985 ft 347 kts 68°
2026-04-22 13:04 -8.40323 116.08012 14989 ft 347 kts 68°
2026-04-22 13:04 -8.39455 116.10297 14992 ft 346 kts 68°
2026-04-22 13:04 -8.38594 116.12562 14996 ft 346 kts 68°
2026-04-22 13:04 -8.37740 116.14809 14998 ft 346 kts 68°
2026-04-22 13:05 -8.36878 116.17076 15001 ft 346 kts 68°
2026-04-22 13:05 -8.36012 116.19352 15004 ft 347 kts 68°
2026-04-22 13:05 -8.35140 116.21647 15003 ft 347 kts 68°
2026-04-22 13:05 -8.34279 116.23909 15004 ft 347 kts 68°
2026-04-22 13:06 -8.33410 116.26193 15004 ft 346 kts 68°
2026-04-22 13:06 -8.32558 116.28430 15000 ft 346 kts 68°
2026-04-22 13:06 -8.31689 116.30714 14998 ft 345 kts 68°
2026-04-22 13:06 -8.30830 116.32971 14999 ft 346 kts 68°
2026-04-22 13:07 -8.29949 116.35286 15491 ft 356 kts 68°
2026-04-22 13:07 -8.29081 116.37569 16350 ft 354 kts 68°
2026-04-22 13:07 -8.28191 116.39909 17040 ft 358 kts 68°
2026-04-22 13:07 -8.27298 116.42260 17691 ft 362 kts 68°
2026-04-22 13:08 -8.26391 116.44642 18295 ft 367 kts 68°
2026-04-22 13:08 -8.25480 116.47036 18892 ft 371 kts 68°
2026-04-22 13:08 -8.24521 116.49474 19498 ft 374 kts 65°
2026-04-22 13:08 -8.23355 116.51813 20081 ft 377 kts 58°
2026-04-22 13:09 -8.21824 116.53969 20609 ft 381 kts 49°
2026-04-22 13:09 -8.19961 116.55871 21170 ft 384 kts 41°
2026-04-22 13:09 -8.17859 116.57537 21731 ft 387 kts 36°
2026-04-22 13:09 -8.15545 116.58950 22251 ft 391 kts 27°
2026-04-22 13:10 -8.13005 116.59977 22791 ft 395 kts 18°
2026-04-22 13:10 -8.10300 116.60608 23271 ft 400 kts 11°
2026-04-22 13:10 -8.07506 116.60966 23774 ft 404 kts
2026-04-22 13:10 -8.04705 116.61191 24277 ft 408 kts
2026-04-22 13:11 -8.01867 116.61359 24780 ft 411 kts
2026-04-22 13:11 -7.98994 116.61507 25223 ft 415 kts
2026-04-22 13:11 -7.96082 116.61652 25720 ft 417 kts
2026-04-22 13:11 -7.93151 116.61803 26149 ft 421 kts
2026-04-22 13:12 -7.90236 116.61959 26597 ft 425 kts
2026-04-22 13:12 -7.87245 116.62125 27069 ft 427 kts
2026-04-22 13:12 -7.84260 116.62296 27488 ft 430 kts
2026-04-22 13:12 -7.81280 116.62469 27944 ft 432 kts
2026-04-22 13:13 -7.78245 116.62648 28339 ft 436 kts
2026-04-22 13:13 -7.75196 116.62829 28756 ft 439 kts
2026-04-22 13:13 -7.72141 116.63011 29146 ft 442 kts
2026-04-22 13:13 -7.69074 116.63194 29512 ft 446 kts
2026-04-22 13:14 -7.65941 116.63381 29888 ft 450 kts
2026-04-22 13:14 -7.62809 116.63569 30241 ft 453 kts
2026-04-22 13:14 -7.59643 116.63769 30822 ft 451 kts
2026-04-22 13:14 -7.56531 116.64094 31338 ft 450 kts 10°
2026-04-22 13:15 -7.53470 116.64718 31819 ft 448 kts 17°
2026-04-22 13:15 -7.50501 116.65678 32288 ft 447 kts 23°
2026-04-22 13:15 -7.47676 116.66959 32783 ft 445 kts 29°
2026-04-22 13:15 -7.45007 116.68559 33363 ft 441 kts 36°
2026-04-22 13:16 -7.42571 116.70428 33889 ft 439 kts 42°
2026-04-22 13:16 -7.40385 116.72543 34348 ft 438 kts 49°
2026-04-22 13:16 -7.38434 116.74928 34830 ft 436 kts 55°
2026-04-22 13:16 -7.36784 116.77483 34977 ft 440 kts 60°
2026-04-22 13:17 -7.35266 116.80160 34971 ft 439 kts 62°
2026-04-22 13:17 -7.32153 116.85424 34973 ft 435 kts 58°
2026-04-22 13:18 -7.28684 116.90443 34971 ft 438 kts 54°
2026-04-22 13:18 -7.24935 116.95289 34972 ft 437 kts 52°
2026-04-22 13:19 -7.21054 117.00043 34972 ft 437 kts 51°
2026-04-22 13:19 -7.17155 117.04720 34971 ft 437 kts 51°
2026-04-22 13:20 -7.13222 117.09405 34971 ft 438 kts 51°
2026-04-22 13:20 -7.09297 117.14074 34971 ft 437 kts 51°
2026-04-22 13:21 -7.05351 117.18767 34971 ft 438 kts 51°
2026-04-22 13:21 -7.01435 117.23425 34971 ft 437 kts 51°
2026-04-22 13:22 -6.97512 117.28090 34971 ft 436 kts 51°
2026-04-22 13:22 -6.93593 117.32748 34972 ft 437 kts 51°
2026-04-22 13:23 -6.89670 117.37410 34970 ft 437 kts 51°
2026-04-22 13:23 -6.85734 117.42090 34971 ft 436 kts 51°
2026-04-22 13:24 -6.81826 117.46732 34972 ft 435 kts 51°
2026-04-22 13:24 -6.77919 117.51372 34971 ft 435 kts 51°
2026-04-22 13:25 -6.73980 117.56046 34971 ft 436 kts 51°
2026-04-22 13:25 -6.70083 117.60671 34972 ft 435 kts 51°
2026-04-22 13:26 -6.65978 117.65208 34971 ft 437 kts 46°
2026-04-22 13:26 -6.61491 117.69397 34979 ft 437 kts 43°
2026-04-22 13:27 -6.56965 117.73467 34984 ft 437 kts 43°
2026-04-22 13:27 -6.52436 117.77569 34983 ft 436 kts 44°
2026-04-22 13:28 -6.47966 117.81660 34985 ft 436 kts 44°
2026-04-22 13:28 -6.43470 117.85800 34989 ft 437 kts 44°
2026-04-22 13:29 -6.38973 117.89950 34993 ft 437 kts 44°
2026-04-22 13:29 -6.34496 117.94083 34992 ft 436 kts 44°
2026-04-22 13:30 -6.30020 117.98218 34993 ft 436 kts 44°
2026-04-22 13:30 -6.25567 118.02329 34982 ft 436 kts 44°
2026-04-22 13:31 -6.21091 118.06460 34979 ft 436 kts 44°
2026-04-22 13:31 -6.16625 118.10581 34974 ft 436 kts 44°
2026-04-22 13:32 -6.12148 118.14712 34972 ft 435 kts 44°
2026-04-22 13:32 -6.07698 118.18822 34973 ft 435 kts 44°
2026-04-22 13:33 -6.03247 118.22933 34890 ft 432 kts 44°
2026-04-22 13:33 -6.01032 118.24982 34389 ft 429 kts 44°
2026-04-22 13:33 -5.98837 118.27010 33493 ft 433 kts 44°
2026-04-22 13:33 -5.96642 118.29034 32943 ft 428 kts 44°
2026-04-22 13:34 -5.94438 118.31065 32418 ft 424 kts 44°
2026-04-22 13:34 -5.92289 118.33041 31915 ft 420 kts 44°
2026-04-22 13:34 -5.90139 118.35018 31397 ft 417 kts 44°
2026-04-22 13:34 -5.88023 118.36964 30900 ft 413 kts 44°
2026-04-22 13:35 -5.85899 118.38920 30428 ft 409 kts 44°
2026-04-22 13:35 -5.83831 118.40838 29873 ft 407 kts 44°
2026-04-22 13:35 -5.81739 118.42787 29109 ft 408 kts 44°
2026-04-22 13:35 -5.79672 118.44702 28867 ft 398 kts 44°
2026-04-22 13:36 -5.77646 118.46575 28412 ft 394 kts 44°
2026-04-22 13:36 -5.75661 118.48408 27976 ft 390 kts 44°
2026-04-22 13:36 -5.73673 118.50241 27506 ft 386 kts 44°
2026-04-22 13:36 -5.71712 118.52049 27011 ft 384 kts 44°
2026-04-22 13:37 -5.69754 118.53856 26534 ft 381 kts 44°
2026-04-22 13:37 -5.67785 118.55671 26055 ft 378 kts 44°
2026-04-22 13:37 -5.65867 118.57439 25587 ft 375 kts 44°
2026-04-22 13:37 -5.63957 118.59200 25143 ft 371 kts 44°
2026-04-22 13:38 -5.62056 118.60952 24665 ft 368 kts 44°
2026-04-22 13:38 -5.58331 118.64385 23724 ft 363 kts 44°
2026-04-22 13:38 -5.56463 118.66108 23282 ft 359 kts 44°
2026-04-22 13:39 -5.54631 118.67796 22850 ft 356 kts 44°
2026-04-22 13:39 -5.52831 118.69454 22526 ft 350 kts 44°
2026-04-22 13:39 -5.51051 118.71096 21939 ft 351 kts 44°
2026-04-22 13:39 -5.49258 118.72750 21352 ft 343 kts 44°
2026-04-22 13:40 -5.47535 118.74338 20789 ft 336 kts 44°
2026-04-22 13:40 -5.45832 118.75909 20217 ft 330 kts 44°
2026-04-22 13:40 -5.44160 118.77450 19646 ft 327 kts 44°
2026-04-22 13:40 -5.42484 118.78994 19067 ft 324 kts 44°
2026-04-22 13:41 -5.40821 118.80525 18486 ft 320 kts 44°
2026-04-22 13:41 -5.39205 118.82011 17911 ft 316 kts 44°
2026-04-22 13:41 -5.37591 118.83495 17329 ft 312 kts 44°
2026-04-22 13:41 -5.35993 118.84965 16749 ft 309 kts 44°
2026-04-22 13:42 -5.34429 118.86404 16174 ft 307 kts 44°
2026-04-22 13:42 -5.32861 118.87848 15592 ft 305 kts 44°
2026-04-22 13:42 -5.31319 118.89295 15011 ft 304 kts 46°
2026-04-22 13:42 -5.29997 118.90951 14411 ft 301 kts 62°
2026-04-22 13:43 -5.29389 118.92940 13787 ft 306 kts 84°
2026-04-22 13:43 -5.29361 118.95046 13166 ft 306 kts 90°
2026-04-22 13:43 -5.29422 118.97162 12453 ft 304 kts 90°
2026-04-22 13:43 -5.29466 118.99265 11752 ft 302 kts 90°
2026-04-22 13:44 -5.29486 119.01366 11070 ft 300 kts 89°
2026-04-22 13:44 -5.29488 119.03442 10478 ft 294 kts 89°
2026-04-22 13:44 -5.29483 119.05453 10086 ft 283 kts 89°
2026-04-22 13:44 -5.29476 119.07372 9636 ft 276 kts 88°
2026-04-22 13:45 -5.29467 119.09285 9145 ft 271 kts 89°
2026-04-22 13:45 -5.29458 119.11146 8790 ft 261 kts 89°
2026-04-22 13:45 -5.29450 119.12913 8485 ft 252 kts 89°
2026-04-22 13:45 -5.29441 119.14711 8188 ft 267 kts 89°
2026-04-22 13:46 -5.29432 119.16589 7844 ft 269 kts 89°
2026-04-22 13:46 -5.29425 119.18455 7495 ft 268 kts 89°
2026-04-22 13:46 -5.29418 119.20303 7139 ft 259 kts 89°
2026-04-22 13:46 -5.29412 119.22083 6819 ft 250 kts 89°
2026-04-22 13:47 -5.29404 119.23800 6519 ft 254 kts 89°
2026-04-22 13:47 -5.29396 119.25620 6186 ft 262 kts 89°
2026-04-22 13:47 -5.29388 119.27438 5858 ft 264 kts 89°
2026-04-22 13:47 -5.29380 119.29260 5520 ft 260 kts 89°
2026-04-22 13:48 -5.29373 119.31046 5236 ft 252 kts 89°
2026-04-22 13:48 -5.29365 119.32810 4875 ft 254 kts 89°
2026-04-22 13:48 -5.29357 119.34593 4551 ft 254 kts 89°
2026-04-22 13:48 -5.29349 119.36353 4363 ft 248 kts 90°
2026-04-22 13:49 -5.29341 119.38032 4295 ft 238 kts 90°
2026-04-22 13:49 -5.29334 119.39682 4226 ft 236 kts 89°
2026-04-22 13:49 -5.29285 119.41302 4140 ft 226 kts 83°
2026-04-22 13:49 -5.28925 119.42790 4043 ft 217 kts 69°
2026-04-22 13:50 -5.28511 119.43712 3905 ft 215 kts 61°
2026-04-22 13:50 -5.27324 119.45326 3690 ft 215 kts 46°
2026-04-22 13:50 -5.26159 119.46287 3597 ft 214 kts 34°
2026-04-22 13:50 -5.24824 119.46990 3371 ft 220 kts 23°
2026-04-22 13:51 -5.23356 119.47420 3058 ft 223 kts 12°
2026-04-22 13:51 -5.21794 119.47624 2796 ft 222 kts
2026-04-22 13:51 -5.20299 119.47956 2506 ft 214 kts 20°
2026-04-22 13:51 -5.19036 119.48563 2231 ft 194 kts 33°
2026-04-22 13:52 -5.18030 119.49330 1965 ft 169 kts 38°
2026-04-22 13:52 -5.17079 119.49948 1789 ft 153 kts 31°
2026-04-22 13:52 -5.16148 119.50456 1588 ft 149 kts 31°
2026-04-22 13:52 -5.15261 119.50964 1386 ft 146 kts 32°
2026-04-22 13:53 -5.14368 119.51475 1197 ft 146 kts 31°
2026-04-22 13:53 -5.13496 119.51974 1011 ft 144 kts 31°
2026-04-22 13:53 -5.12626 119.52472 821 ft 143 kts 31°
2026-04-22 13:53 -5.11759 119.52970 625 ft 144 kts 31°
2026-04-22 13:54 -5.10879 119.53454 432 ft 143 kts 31°
2026-04-22 13:54 -5.10010 119.53955 243 ft 141 kts 31°
2026-04-22 13:54 -5.09163 119.54442 94 ft 136 kts 32°
2026-04-22 13:54 -5.08414 119.54874 59 ft 111 kts 31°
2026-04-22 13:55 -5.07890 119.55175 60 ft 60 kts 30°
2026-04-22 13:55 -5.07659 119.55308 60 ft 29 kts 28°
2026-04-22 13:55 -5.07469 119.55404 60 ft 28 kts 18°
2026-04-22 13:55 -5.07302 119.55430 60 ft 16 kts 359°
2026-04-22 13:56 -5.07224 119.55426 60 ft 7 kts 337°
2026-04-22 13:56 -5.07208 119.55381 60 ft 7 kts 250°
2026-04-22 13:56 -5.07245 119.55345 60 ft 7 kts 213°
2026-04-22 13:56 -5.07297 119.55314 60 ft 10 kts 211°
2026-04-22 13:57 -5.07375 119.55268 60 ft 15 kts 210°
2026-04-22 13:57 -5.07478 119.55209 60 ft 19 kts 210°
2026-04-22 13:57 -5.07602 119.55132 60 ft 21 kts 232°
2026-04-22 13:57 -5.07587 119.55028 59 ft 11 kts 288°
2026-04-22 13:58 -5.07604 119.54954 59 ft 11 kts 217°
2026-04-22 13:58 -5.07663 119.54951 59 ft 6 kts 125°
2026-04-22 13:58 -5.07685 119.54987 59 ft 4 kts 119°
2026-04-22 13:58 -5.07688 119.54993 59 ft 0 kts 119°